Regional Weather Roundup
Issued by NWS Upton, NY

Current Version | Previous Version | Graphics & Text | Print | Product List | Glossary Off
Versions: 1 2 3 4 5 6 7 8 9 10 11 12 13 14 15 16 17 18 19 20 21 22 23 24 25 26 27 28 29 30 31 32 33 34 35 36 37 38 39 40 41 42 43 44 45 46 47 48 49 50

000
ASUS41 KOKX 290105
RWROKX

REGIONAL WEATHER ROUNDUP
NATIONAL WEATHER SERVICE NEW YORK NY
800 PM EST SUN DEC 28 2014

NOTE: "FAIR" INDICATES FEW OR NO CLOUDS BELOW 12,000 FEET WITH NO
SIGNIFICANT WEATHER AND/OR OBSTRUCTIONS TO VISIBILITY.

NYZ071-072-176-178-NJZ106-104-290200-
NEW YORK CITY METRO AREA


CITY           SKY/WX    TMP DP  RH WIND       PRES   REMARKS
CENTRAL PARK   CLOUDY    48  32  53 NW8       30.01S
LAGUARDIA APRT CLOUDY    46  34  62 NW12      29.99S
KENNEDY INTL   CLOUDY    49  32  52 NW15      30.00S
NEWARK/LIBERTY CLOUDY    48  35  60 NW10G18   30.00S
BRNX BOT. GARD   N/A     46  32  57 N7        30.01S
TETERBORO      CLOUDY    47  35  63 NW8       29.99S
$$

NYZ177-179-078>081-290200-
LONG ISLAND NEW YORK

CITY           SKY/WX    TMP DP  RH WIND       PRES   REMARKS
FARMINGDALE    CLOUDY    47  32  56 NW9       29.99R
ISLIP          CLOUDY    47  35  63 NW9       29.96S
SHIRLEY        CLOUDY    47  37  68 NW8       29.98R
WESTHAMPTON    CLOUDY    48  37  65 NW9       29.98R
MONTAUK POINT    N/A     47  40  76 NW6       29.96S
$$

NYZ052-065-067-290200-
HUDSON VALLEY

CITY           SKY/WX    TMP DP  RH WIND       PRES   REMARKS
WHITE PLAINS   CLOUDY    43  32  65 NW10      29.97S
NEWBURGH       MOCLDY    41  32  70 NW12      30.01R
MONTGOMERY     CLOUDY    42  30  62 NW7       30.00R
POUGHKEEPSIE   CLOUDY    44  30  57 NW7       29.99R
ALBANY         CLOUDY    37  25  61 W17       30.03R WCI  27
$$

NJZ001-105-106-008-010-013-015-019>022-104-290200-
NEW JERSEY

CITY           SKY/WX    TMP DP  RH WIND       PRES   REMARKS
NEWARK/LIBERTY CLOUDY    48  35  60 NW10G18   30.00S
TETERBORO      CLOUDY    47  35  63 NW8       29.99S
CALDWELL       CLOUDY    45  32  60 NW6       30.00R
MORRISTOWN     NOT AVBL
SOMERVILLE     CLOUDY    47  34  60 N7        29.98S
SUSSEX         CLOUDY    42  32  67 MISG      30.01R
ANDOVER        NOT AVBL
TRENTON        CLOUDY    50  40  68 W5        29.99S
MILLVILLE      CLOUDY    46  45  96 W3        30.02S
ATLANTIC CITY  CLOUDY    48  45  89 SW3       30.00F
WRIGHTSTOWN    CLOUDY    47  45  90 W5        29.97F
TOMS RIVER     CLOUDY    46  45  93 SW3       29.99R
BELMAR         CLOUDY    50  39  66 W3        29.98F
$$

PAZ047>061-062-071-290200-
EASTERN PENNSYLVANIA

CITY           SKY/WX    TMP DP  RH WIND       PRES   REMARKS
PHILADELPHIA   CLOUDY    51  43  74 W7        30.02R
ALLENTOWN      CLOUDY    43  34  70 NW6       30.02R
SCRANTON       CLOUDY    39  30  70 NW12G21   30.03R WCI  32
$$

CTZ002-004>006-009-010-012-RIZ004-006-007-MAZ004-011-015-290200-
SOUTHERN NEW ENGLAND
 IN CT

CITY           SKY/WX    TMP DP  RH WIND       PRES   REMARKS
BRADLEY INTL   CLOUDY    41  29  62 NW12      29.96R
HARTFORD       CLOUDY    43  30  60 N7        29.97S
DANBURY        CLOUDY    43  29  57 NW7       29.98R
WTRBRY/OXFORD  CLOUDY    41  28  60 NW6       29.97S
BRIDGEPORT     CLOUDY    47  33  58 W8        29.98R
MERIDEN        CLOUDY    44  31  60 N6        29.97R
NEW HAVEN      CLOUDY    49  35  58 N5        29.97R
CHESTER        FAIR      43  34  70 NW6       29.96R
GROTON         CLOUDY    44  33  65 NW9       29.95S
WILLIMANTIC    CLOUDY    43  30  60 NW8       29.96S

 IN RI

CITY           SKY/WX    TMP DP  RH WIND       PRES   REMARKS
PROVIDENCE     CLOUDY    45  32  60 W6        29.94R
BLOCK ISLAND   CLOUDY    46  36  66 NW7       29.94S
WESTERLY       CLOUDY    46  33  60 NW5       29.94F

 IN MA

CITY           SKY/WX    TMP DP  RH WIND       PRES   REMARKS
BOSTON         CLOUDY    45  30  55 W17       29.91R
WORCESTER      CLOUDY    37  27  67 W13       29.90R WCI  29
WESTFIELD      CLOUDY    39  26  59 W13G22    29.96R WCI  31
PROVINCETOWN   CLOUDY    46  36  66 W12       29.90S
NANTUCKET      CLOUDY    47  43  86 W10       29.92R
$$

ANZ330-335-338-340-345-350-353-355-290200-
COASTAL MARINE OBSERVATIONS


STATION/POSITION TIME  SKY/WX   TEMP    WIND        PRES    VSBY  WAVE
                                AIR SEA DIR/SP/G                  HT/PER
                 (UTC)          (F)     (DEG/KT/KT) (MB)    (MI)  (FT/S)
NY HARB ENTRANCE 0100            47 45  340/ 10/ 10 1015.9          3/ 7
4S FIRE IS       0100               46                N/A           3/ 7
20S FIRE ISLAND  0000            50 49              1015.6          4/ 6
23SW MTP         0100                                 N/A           4/ 8
HUDSON CANYON    0100            52 55  260/ 14/ 17 1015.6          5/ 8
EXECUTION ROCKS  0100            46 42  330/  8/ 14   N/A
WESTERN LI SOUND 0100            46     300/ 10/ 12   N/A           0
CENTRAL LI SOUND 0100            46 44  320/  8/ 10   N/A           1/ 3
EASTERN LI SOUND NOT AVBL
ROBBINS REEF     0100            47                 1014.5
$$


>>>>>>>>>>>>>>>>>>>>>>>>>>>> KEY <<<<<<<<<<<<<<<<<<<<<<<<<<<
>                                                          <
>     SKY/WX - SKY CONDITION/PRESENT WEATHER               <
>     TMP    - TEMPERATURE IN FAHRENHEIT                   <
>     DP     - DEWPOINT IN FAHRENHEIT                      <
>     RH     - RELATIVE HUMIDITY IN PERCENT                <
>     WIND   - DIRECTION AND SPEED IN MPH                  <
>     PRES   - MEAN SEA LEVEL PRESSURE IN INCHES OF HG     <
>     WCI    - WIND CHILL INDEX                            <
>     VSB    - VISIBILITY IN MILES                         <
>     HX     - HEAT INDEX                                  <
>     TC     - TEMPERATURE IN CELSIUS                      <
>     VRB    - VARIABLE WIND DIRECTION                     <
>                                                          <
>>>>>>>>>>>>>>>>>>>>>>>>>>>> KEY <<<<<<<<<<<<<<<<<<<<<<<<<<<




USA.gov is the U.S. government's official web portal to all federal, state and local government web resources and services.